Location: Caracas
(10.5033°N, 66.8422°W)
Time: 21:56:26
(UTC-04:00)

N. Korean satellite - Pass Details

Date: 10 November 2017
Orbit: 460 x 514 km, 97.2° (Epoch: 22 November)

Event Time Altitude Azimuth Distance (km) Brightness Sun altitude
Rises 19:38:57 0° 206° (SSW) 2,480 10.7 -23.9°
Reaches altitude 10° 19:42:17 10° 242° (WSW) 1,600 10.2 -24.6°
Maximum altitude 19:43:24 11° 261° (W) 1,521 10.1 -24.9°
Drops below altitude 10° 19:44:31 10° 280° (W) 1,598 10.0 -25.2°
Sets 19:47:50 0° 316° (NW) 2,471 10.5 -26.0°
